Anzahl Datensätze: 276
min. Temperatur: -7.1 °C
max. Temperatur: 0.3 °C
max. Windgeschwindigkeit: 4.9 km/h
Niederschlagsumme: 0.4 mm
| Datum |
Zeit |
Temp °C |
Feuchte % |
Taupunkt °C |
Luftdruck hPa |
Wind km/h |
Windrichtung |
Strahlung w/m² |
Niederschlag mm |
|---|---|---|---|---|---|---|---|---|---|
| 06.01.2026 | 00:04 | -3.9 | 93 | -4.9 | 1014.7 | 1.3 | SSW | 0 | 0.0 |
| 06.01.2026 | 00:09 | -3.9 | 93 | -4.9 | 1014.6 | 0.9 | S | 0 | 0.0 |
| 06.01.2026 | 00:14 | -3.9 | 93 | -4.9 | 1014.7 | 0.9 | SW | 0 | 0.0 |
| 06.01.2026 | 00:19 | -3.9 | 94 | -4.7 | 1014.8 | 1.3 | WSW | 0 | 0.0 |
| 06.01.2026 | 00:24 | -3.9 | 94 | -4.7 | 1014.7 | 0.9 | SSW | 0 | 0.0 |
| 06.01.2026 | 00:29 | -4.0 | 94 | -4.8 | 1014.7 | 1.3 | WSW | 0 | 0.0 |
| 06.01.2026 | 00:34 | -4.0 | 94 | -4.8 | 1014.7 | 1.3 | SW | 0 | 0.0 |
| 06.01.2026 | 00:39 | -4.0 | 94 | -4.8 | 1014.8 | 0.9 | WSW | 0 | 0.0 |
| 06.01.2026 | 00:44 | -4.0 | 94 | -4.8 | 1014.8 | 0.4 | W | 0 | 0.0 |
| 06.01.2026 | 00:49 | -4.0 | 93 | -5.0 | 1014.7 | 0.4 | WSW | 0 | 0.0 |
| 06.01.2026 | 00:54 | -4.0 | 93 | -5.0 | 1014.6 | 1.8 | SSW | 0 | 0.0 |
| 06.01.2026 | 01:00 | -4.0 | 93 | -5.0 | 1014.6 | 0.9 | WSW | 0 | 0.0 |
| 06.01.2026 | 01:05 | -4.0 | 93 | -5.0 | 1014.7 | 0.9 | W | 0 | 0.0 |
| 06.01.2026 | 01:10 | -4.0 | 93 | -5.0 | 1014.7 | 0.4 | W | 0 | 0.0 |
| 06.01.2026 | 01:15 | -4.0 | 93 | -5.0 | 1014.6 | 0.9 | S | 0 | 0.0 |
| 06.01.2026 | 01:20 | -4.0 | 93 | -5.0 | 1014.6 | 0.4 | SW | 0 | 0.0 |
| 06.01.2026 | 01:25 | -4.0 | 93 | -5.0 | 1014.6 | 1.8 | S | 0 | 0.0 |
| 06.01.2026 | 01:30 | -4.0 | 93 | -5.0 | 1014.6 | 0.9 | SSW | 0 | 0.0 |
| 06.01.2026 | 01:35 | -4.0 | 93 | -5.0 | 1014.8 | 0.9 | W | 0 | 0.0 |
| 06.01.2026 | 01:40 | -4.0 | 93 | -5.0 | 1015.0 | 1.3 | SSW | 0 | 0.0 |
| 06.01.2026 | 01:45 | -4.1 | 93 | -5.1 | 1014.9 | 0.9 | W | 0 | 0.0 |
| 06.01.2026 | 01:50 | -4.0 | 93 | -5.0 | 1014.9 | 0.4 | SSW | 0 | 0.0 |
| 06.01.2026 | 01:55 | -4.0 | 93 | -5.0 | 1014.9 | 1.3 | SSW | 0 | 0.0 |
| 06.01.2026 | 02:00 | -4.0 | 93 | -5.0 | 1014.9 | 0.4 | WSW | 0 | 0.0 |
| 06.01.2026 | 02:05 | -4.0 | 93 | -5.0 | 1014.9 | 0.4 | W | 0 | 0.0 |
| 06.01.2026 | 02:10 | -4.0 | 93 | -5.0 | 1014.9 | 0.9 | SSW | 0 | 0.0 |
| 06.01.2026 | 02:15 | -4.0 | 93 | -5.0 | 1014.9 | 0.4 | SSW | 0 | 0.0 |
| 06.01.2026 | 02:20 | -4.0 | 93 | -5.0 | 1014.9 | 0.0 | SSW | 0 | 0.0 |
| 06.01.2026 | 02:25 | -4.0 | 93 | -5.0 | 1014.9 | 0.9 | SSW | 0 | 0.0 |
| 06.01.2026 | 02:30 | -4.0 | 93 | -5.0 | 1014.9 | 0.4 | SSW | 0 | 0.0 |
| 06.01.2026 | 02:35 | -4.0 | 93 | -5.0 | 1014.9 | 0.9 | SSW | 0 | 0.0 |
| 06.01.2026 | 02:40 | -4.1 | 93 | -5.1 | 1014.8 | 0.9 | S | 0 | 0.0 |
| 06.01.2026 | 02:45 | -4.0 | 93 | -5.0 | 1014.9 | 0.9 | S | 0 | 0.0 |
| 06.01.2026 | 02:50 | -4.1 | 93 | -5.1 | 1014.9 | 0.9 | S | 0 | 0.0 |
| 06.01.2026 | 02:55 | -4.0 | 93 | -5.0 | 1014.9 | 0.9 | S | 0 | 0.0 |
| 06.01.2026 | 03:00 | -4.0 | 93 | -5.0 | 1015.0 | 1.3 | S | 0 | 0.0 |
| 06.01.2026 | 03:05 | -4.0 | 93 | -5.0 | 1014.9 | 0.0 | S | 0 | 0.0 |
| 06.01.2026 | 03:10 | -4.0 | 93 | -5.0 | 1014.9 | 0.4 | S | 0 | 0.0 |
| 06.01.2026 | 03:15 | -4.0 | 93 | -5.0 | 1014.9 | 0.4 | S | 0 | 0.0 |
| 06.01.2026 | 03:20 | -4.0 | 93 | -5.0 | 1014.8 | 0.4 | S | 0 | 0.0 |
| 06.01.2026 | 03:25 | -4.0 | 93 | -5.0 | 1014.7 | 0.9 | S | 0 | 0.0 |
| 06.01.2026 | 03:30 | -4.0 | 93 | -5.0 | 1014.8 | 0.4 | S | 0 | 0.0 |
| 06.01.2026 | 03:35 | -4.0 | 93 | -5.0 | 1014.7 | 0.0 | SSW | 0 | 0.0 |
| 06.01.2026 | 03:41 | -4.0 | 93 | -5.0 | 1014.7 | 0.4 | SSO | 0 | 0.0 |
| 06.01.2026 | 03:46 | -4.0 | 93 | -5.0 | 1014.9 | 0.4 | SSO | 0 | 0.0 |
| 06.01.2026 | 03:51 | -4.0 | 93 | -5.0 | 1014.9 | 0.9 | S | 0 | 0.0 |
| 06.01.2026 | 03:56 | -4.0 | 93 | -5.0 | 1014.9 | 0.9 | S | 0 | 0.0 |
| 06.01.2026 | 04:01 | -4.0 | 93 | -5.0 | 1015.0 | 0.9 | SW | 0 | 0.0 |
| 06.01.2026 | 04:06 | -4.0 | 93 | -5.0 | 1014.9 | 0.9 | SSW | 0 | 0.0 |
| 06.01.2026 | 04:11 | -3.9 | 93 | -4.9 | 1014.9 | 0.4 | SW | 0 | 0.0 |
| 06.01.2026 | 04:16 | -3.9 | 93 | -4.9 | 1014.9 | 0.9 | SSW | 0 | 0.0 |
| 06.01.2026 | 04:21 | -3.9 | 93 | -4.9 | 1014.9 | 2.2 | S | 0 | 0.0 |
| 06.01.2026 | 04:26 | -3.9 | 93 | -4.9 | 1014.9 | 1.3 | SSW | 0 | 0.0 |
| 06.01.2026 | 04:31 | -3.8 | 93 | -4.8 | 1015.0 | 0.4 | SW | 0 | 0.0 |
| 06.01.2026 | 04:36 | -3.8 | 93 | -4.8 | 1015.0 | 0.9 | SW | 0 | 0.0 |
| 06.01.2026 | 04:41 | -3.8 | 93 | -4.8 | 1015.1 | 0.9 | SSW | 0 | 0.0 |
| 06.01.2026 | 04:46 | -3.7 | 93 | -4.7 | 1015.0 | 0.4 | SSW | 0 | 0.0 |
| 06.01.2026 | 04:51 | -3.7 | 93 | -4.7 | 1015.0 | 0.9 | S | 0 | 0.0 |
| 06.01.2026 | 04:56 | -3.7 | 93 | -4.7 | 1015.0 | 0.0 | SSW | 0 | 0.0 |
| 06.01.2026 | 05:01 | -3.7 | 93 | -4.7 | 1015.0 | 0.4 | SSW | 0 | 0.0 |
| 06.01.2026 | 05:06 | -3.7 | 93 | -4.7 | 1015.2 | 0.4 | SW | 0 | 0.0 |
| 06.01.2026 | 05:11 | -3.7 | 93 | -4.7 | 1015.1 | 0.4 | SSW | 0 | 0.0 |
| 06.01.2026 | 05:16 | -3.6 | 93 | -4.6 | 1015.1 | 0.9 | SSW | 0 | 0.0 |
| 06.01.2026 | 05:21 | -3.6 | 93 | -4.6 | 1015.1 | 0.9 | SSW | 0 | 0.0 |
| 06.01.2026 | 05:26 | -3.6 | 93 | -4.6 | 1015.1 | 2.7 | SSW | 0 | 0.0 |
| 06.01.2026 | 05:31 | -3.6 | 93 | -4.6 | 1015.2 | 1.3 | SSW | 0 | 0.0 |
| 06.01.2026 | 05:36 | -3.6 | 93 | -4.6 | 1015.1 | 0.4 | SSW | 0 | 0.0 |
| 06.01.2026 | 05:41 | -3.5 | 93 | -4.5 | 1015.3 | 1.3 | SW | 0 | 0.0 |
| 06.01.2026 | 05:46 | -3.5 | 93 | -4.5 | 1015.3 | 1.8 | W | 0 | 0.0 |
| 06.01.2026 | 05:51 | -3.5 | 93 | -4.5 | 1015.3 | 1.8 | SW | 0 | 0.0 |
| 06.01.2026 | 05:56 | -3.5 | 93 | -4.5 | 1015.4 | 0.9 | SSW | 0 | 0.0 |
| 06.01.2026 | 06:01 | -3.4 | 94 | -4.2 | 1015.4 | 0.4 | SW | 0 | 0.0 |
| 06.01.2026 | 06:06 | -3.4 | 94 | -4.2 | 1015.5 | 0.9 | WSW | 0 | 0.0 |
| 06.01.2026 | 06:11 | -3.4 | 94 | -4.2 | 1015.5 | 0.9 | WSW | 0 | 0.0 |
| 06.01.2026 | 06:16 | -3.4 | 94 | -4.2 | 1015.5 | 1.8 | SW | 0 | 0.0 |
| 06.01.2026 | 06:21 | -3.4 | 94 | -4.2 | 1015.5 | 1.8 | W | 0 | 0.0 |
| 06.01.2026 | 06:26 | -3.4 | 94 | -4.2 | 1015.5 | 0.9 | WSW | 0 | 0.0 |
| 06.01.2026 | 06:31 | -3.4 | 94 | -4.2 | 1015.5 | 0.4 | SW | 0 | 0.0 |
| 06.01.2026 | 06:37 | -3.3 | 94 | -4.1 | 1015.5 | 1.3 | SSW | 0 | 0.0 |
| 06.01.2026 | 06:42 | -3.3 | 94 | -4.1 | 1015.6 | 1.3 | SSW | 0 | 0.0 |
| 06.01.2026 | 06:47 | -3.3 | 94 | -4.1 | 1015.5 | 1.8 | SSW | 0 | 0.0 |
| 06.01.2026 | 06:52 | -3.3 | 94 | -4.1 | 1015.6 | 0.4 | S | 0 | 0.0 |
| 06.01.2026 | 06:57 | -3.2 | 94 | -4.0 | 1015.6 | 0.0 | SSW | 0 | 0.0 |
| 06.01.2026 | 07:02 | -3.2 | 94 | -4.0 | 1015.6 | 0.9 | S | 0 | 0.0 |
| 06.01.2026 | 07:07 | -3.2 | 94 | -4.0 | 1015.5 | 0.0 | S | 0 | 0.0 |
| 06.01.2026 | 07:12 | -3.2 | 94 | -4.0 | 1015.6 | 1.3 | S | 0 | 0.0 |
| 06.01.2026 | 07:17 | -3.2 | 94 | -4.0 | 1015.6 | 0.4 | SSW | 0 | 0.0 |
| 06.01.2026 | 07:22 | -3.2 | 94 | -4.0 | 1015.7 | 0.9 | SW | 0 | 0.0 |
| 06.01.2026 | 07:27 | -3.2 | 94 | -4.0 | 1015.7 | 0.0 | SSW | 0 | 0.0 |
| 06.01.2026 | 07:32 | -3.2 | 94 | -4.0 | 1015.7 | 0.0 | SSW | 0 | 0.0 |
| 06.01.2026 | 07:37 | -3.2 | 94 | -4.0 | 1015.7 | 0.9 | S | 0 | 0.0 |
| 06.01.2026 | 07:42 | -3.2 | 94 | -4.0 | 1015.8 | 0.4 | S | 0 | 0.0 |
| 06.01.2026 | 07:47 | -3.2 | 94 | -4.0 | 1015.9 | 0.9 | SSW | 0 | 0.0 |
| 06.01.2026 | 07:52 | -3.2 | 94 | -4.0 | 1016.0 | 0.4 | SSW | 0 | 0.0 |
| 06.01.2026 | 07:57 | -3.2 | 94 | -4.0 | 1016.1 | 0.0 | SSW | 0 | 0.0 |
| 06.01.2026 | 08:02 | -3.2 | 94 | -4.0 | 1016.1 | 0.4 | SSW | 0 | 0.0 |
| 06.01.2026 | 08:07 | -3.2 | 94 | -4.0 | 1016.1 | 0.0 | SSW | 0 | 0.0 |
| 06.01.2026 | 08:12 | -3.2 | 94 | -4.0 | 1016.1 | 0.4 | SSW | 0 | 0.0 |
| 06.01.2026 | 08:17 | -3.1 | 94 | -3.9 | 1016.3 | 0.9 | WSW | 0 | 0.0 |
| 06.01.2026 | 08:22 | -3.1 | 94 | -3.9 | 1016.4 | 0.0 | WSW | 0 | 0.0 |
| 06.01.2026 | 08:27 | -3.1 | 94 | -3.9 | 1016.5 | 0.4 | WSW | 0 | 0.0 |
| 06.01.2026 | 08:32 | -3.0 | 94 | -3.8 | 1016.5 | 0.9 | W | 0 | 0.0 |
| 06.01.2026 | 08:37 | -3.0 | 94 | -3.8 | 1016.6 | 0.4 | WSW | 0 | 0.0 |
| 06.01.2026 | 08:42 | -3.0 | 94 | -3.8 | 1016.6 | 0.0 | WSW | 0 | 0.0 |
| 06.01.2026 | 08:47 | -3.0 | 94 | -3.8 | 1016.7 | 0.0 | WSW | 0 | 0.0 |
| 06.01.2026 | 08:52 | -3.0 | 94 | -3.8 | 1016.7 | 0.4 | S | 5 | 0.0 |
| 06.01.2026 | 08:57 | -3.0 | 94 | -3.8 | 1016.8 | 0.4 | SSW | 7 | 0.0 |
| 06.01.2026 | 09:02 | -3.0 | 94 | -3.8 | 1016.8 | 0.0 | WSW | 11 | 0.0 |
| 06.01.2026 | 09:07 | -3.0 | 94 | -3.8 | 1016.9 | 0.0 | WSW | 9 | 0.0 |
| 06.01.2026 | 09:12 | -3.0 | 94 | -3.8 | 1017.0 | 0.0 | WSW | 14 | 0.0 |
| 06.01.2026 | 09:17 | -3.0 | 94 | -3.8 | 1017.0 | 0.0 | WSW | 19 | 0.0 |
| 06.01.2026 | 09:23 | -3.0 | 94 | -3.8 | 1017.0 | 0.4 | WSW | 28 | 0.0 |
| 06.01.2026 | 09:28 | -3.0 | 94 | -3.8 | 1017.0 | 0.0 | WSW | 28 | 0.0 |
| 06.01.2026 | 09:33 | -3.0 | 94 | -3.8 | 1017.0 | 0.0 | WSW | 28 | 0.0 |
| 06.01.2026 | 09:38 | -3.0 | 94 | -3.8 | 1017.0 | 0.9 | WSW | 42 | 0.0 |
| 06.01.2026 | 09:43 | -3.1 | 94 | -3.9 | 1017.1 | 0.0 | W | 39 | 0.0 |
| 06.01.2026 | 09:53 | -3.2 | 94 | -4.0 | 1017.2 | 0.4 | WSW | 40 | 0.0 |
| 06.01.2026 | 09:58 | -3.2 | 94 | -4.0 | 1017.2 | 0.0 | WSW | 37 | 0.0 |
| 06.01.2026 | 10:03 | -3.2 | 94 | -4.0 | 1017.3 | 0.4 | WSW | 37 | 0.0 |
| 06.01.2026 | 10:08 | -3.2 | 94 | -4.0 | 1017.4 | 0.4 | WSW | 44 | 0.0 |
| 06.01.2026 | 10:13 | -3.1 | 94 | -3.9 | 1017.4 | 0.0 | WSW | 62 | 0.0 |
| 06.01.2026 | 10:18 | -3.1 | 94 | -3.9 | 1017.5 | 0.0 | WSW | 39 | 0.0 |
| 06.01.2026 | 10:23 | -3.0 | 94 | -3.8 | 1017.5 | 0.0 | WSW | 40 | 0.0 |
| 06.01.2026 | 10:28 | -2.9 | 94 | -3.7 | 1017.5 | 0.0 | WSW | 39 | 0.0 |
| 06.01.2026 | 10:33 | -2.7 | 94 | -3.5 | 1017.5 | 0.0 | WSW | 39 | 0.0 |
| 06.01.2026 | 10:43 | -2.4 | 94 | -3.2 | 1017.7 | 0.4 | NW | 53 | 0.0 |
| 06.01.2026 | 10:48 | -2.2 | 94 | -3.0 | 1017.8 | 0.4 | NW | 190 | 0.0 |
| 06.01.2026 | 10:53 | -2.0 | 94 | -2.8 | 1017.9 | 0.4 | NW | 309 | 0.0 |
| 06.01.2026 | 10:58 | -1.9 | 93 | -2.9 | 1018.0 | 0.4 | NW | 352 | 0.0 |
| 06.01.2026 | 11:03 | -1.7 | 93 | -2.7 | 1018.1 | 1.3 | NW | 315 | 0.0 |
| 06.01.2026 | 11:08 | -1.6 | 93 | -2.6 | 1018.1 | 2.2 | NW | 311 | 0.0 |
| 06.01.2026 | 11:13 | -1.5 | 93 | -2.5 | 1018.1 | 0.4 | NW | 279 | 0.0 |
| 06.01.2026 | 11:18 | -1.3 | 93 | -2.3 | 1018.1 | 1.3 | NW | 253 | 0.0 |
| 06.01.2026 | 11:28 | -1.1 | 92 | -2.2 | 1018.1 | 0.9 | W | 279 | 0.0 |
| 06.01.2026 | 11:33 | -1.1 | 92 | -2.2 | 1018.1 | 0.9 | NW | 285 | 0.0 |
| 06.01.2026 | 11:38 | -0.9 | 92 | -2.0 | 1018.0 | 0.0 | NW | 287 | 0.0 |
| 06.01.2026 | 11:43 | -0.9 | 92 | -2.0 | 1018.0 | 0.9 | NW | 288 | 0.0 |
| 06.01.2026 | 11:48 | -0.8 | 91 | -2.1 | 1018.0 | 0.4 | WSW | 294 | 0.0 |
| 06.01.2026 | 11:53 | -0.8 | 91 | -2.1 | 1018.0 | 0.4 | WSW | 292 | 0.0 |
| 06.01.2026 | 12:03 | -0.8 | 91 | -2.1 | 1017.9 | 0.4 | NW | 299 | 0.0 |
| 06.01.2026 | 12:08 | -0.7 | 90 | -2.1 | 1018.0 | 1.3 | W | 309 | 0.0 |
| 06.01.2026 | 12:14 | -0.7 | 90 | -2.1 | 1017.8 | 1.3 | NNW | 218 | 0.0 |
| 06.01.2026 | 12:19 | -0.7 | 90 | -2.1 | 1017.8 | 1.8 | WSW | 144 | 0.0 |
| 06.01.2026 | 12:29 | -0.8 | 90 | -2.2 | 1017.7 | 0.9 | WSW | 209 | 0.0 |
| 06.01.2026 | 12:39 | -0.5 | 90 | -1.9 | 1017.7 | 1.8 | NNW | 408 | 0.0 |
| 06.01.2026 | 12:44 | -0.4 | 90 | -1.8 | 1017.7 | 1.8 | NW | 327 | 0.0 |
| 06.01.2026 | 12:49 | -0.3 | 89 | -1.9 | 1017.7 | 0.4 | NNW | 132 | 0.0 |
| 06.01.2026 | 12:54 | -0.4 | 88 | -2.1 | 1017.8 | 1.3 | NW | 148 | 0.0 |
| 06.01.2026 | 12:59 | -0.4 | 88 | -2.1 | 1017.8 | 0.9 | W | 149 | 0.0 |
| 06.01.2026 | 13:04 | -0.5 | 88 | -2.2 | 1017.7 | 0.4 | NNW | 160 | 0.0 |
| 06.01.2026 | 13:09 | -0.5 | 88 | -2.2 | 1017.7 | 0.9 | NW | 120 | 0.0 |
| 06.01.2026 | 13:14 | -0.6 | 88 | -2.3 | 1017.7 | 0.0 | NW | 95 | 0.0 |
| 06.01.2026 | 13:19 | -0.6 | 88 | -2.3 | 1017.6 | 0.9 | W | 178 | 0.0 |
| 06.01.2026 | 13:24 | -0.5 | 88 | -2.2 | 1017.7 | 0.9 | W | 367 | 0.0 |
| 06.01.2026 | 13:29 | -0.4 | 88 | -2.1 | 1017.7 | 0.4 | W | 360 | 0.0 |
| 06.01.2026 | 13:34 | -0.2 | 88 | -1.9 | 1017.6 | 0.4 | W | 183 | 0.0 |
| 06.01.2026 | 13:39 | -0.1 | 88 | -1.8 | 1017.6 | 0.9 | NNW | 415 | 0.0 |
| 06.01.2026 | 13:44 | 0.0 | 88 | -1.7 | 1017.6 | 0.9 | NW | 153 | 0.0 |
| 06.01.2026 | 13:54 | -0.1 | 87 | -2.0 | 1017.3 | 0.4 | W | 225 | 0.2 |
| 06.01.2026 | 13:59 | -0.1 | 87 | -2.0 | 1017.4 | 0.4 | NW | 74 | 0.2 |
| 06.01.2026 | 14:04 | -0.1 | 87 | -2.0 | 1017.3 | 0.9 | W | 269 | 0.2 |
| 06.01.2026 | 14:09 | -0.2 | 87 | -2.1 | 1017.3 | 0.4 | WSW | 267 | 0.2 |
| 06.01.2026 | 14:19 | -0.2 | 87 | -2.1 | 1017.3 | 0.0 | WSW | 114 | 0.2 |
| 06.01.2026 | 14:24 | -0.1 | 87 | -2.0 | 1017.3 | 0.0 | WSW | 125 | 0.2 |
| 06.01.2026 | 14:34 | 0.1 | 87 | -1.8 | 1017.3 | 0.4 | W | 81 | 0.2 |
| 06.01.2026 | 14:39 | 0.2 | 87 | -1.7 | 1017.3 | 0.4 | W | 100 | 0.2 |
| 06.01.2026 | 14:44 | 0.2 | 87 | -1.7 | 1017.3 | 0.4 | WNW | 84 | 0.2 |
| 06.01.2026 | 14:49 | 0.3 | 87 | -1.6 | 1017.4 | 0.4 | WNW | 88 | 0.2 |
| 06.01.2026 | 14:54 | 0.3 | 87 | -1.6 | 1017.4 | 0.4 | WSW | 74 | 0.2 |
| 06.01.2026 | 14:59 | 0.3 | 87 | -1.6 | 1017.4 | 0.4 | WSW | 53 | 0.2 |
| 06.01.2026 | 15:04 | 0.2 | 87 | -1.7 | 1017.4 | 1.3 | WSW | 56 | 0.4 |
| 06.01.2026 | 15:09 | 0.1 | 87 | -1.8 | 1017.4 | 0.9 | WSW | 58 | 0.4 |
| 06.01.2026 | 15:15 | 0.0 | 87 | -1.9 | 1017.4 | 0.9 | SW | 53 | 0.4 |
| 06.01.2026 | 15:20 | 0.0 | 88 | -1.7 | 1017.4 | 0.9 | WSW | 49 | 0.4 |
| 06.01.2026 | 15:25 | 0.0 | 88 | -1.7 | 1017.4 | 1.3 | WSW | 49 | 0.4 |
| 06.01.2026 | 15:30 | -0.1 | 88 | -1.8 | 1017.4 | 0.4 | WSW | 49 | 0.4 |
| 06.01.2026 | 15:35 | -0.1 | 89 | -1.7 | 1017.4 | 1.3 | SW | 51 | 0.4 |
| 06.01.2026 | 15:40 | -0.1 | 89 | -1.7 | 1017.5 | 0.9 | S | 42 | 0.4 |
| 06.01.2026 | 15:45 | -0.2 | 89 | -1.8 | 1017.4 | 0.9 | SSW | 53 | 0.4 |
| 06.01.2026 | 15:50 | -0.2 | 90 | -1.6 | 1017.4 | 0.4 | SSW | 60 | 0.4 |
| 06.01.2026 | 15:55 | -0.3 | 90 | -1.7 | 1017.5 | 1.3 | WSW | 58 | 0.4 |
| 06.01.2026 | 16:00 | -0.4 | 90 | -1.8 | 1017.5 | 0.9 | SW | 47 | 0.4 |
| 06.01.2026 | 16:05 | -0.4 | 90 | -1.8 | 1017.4 | 0.9 | SSW | 51 | 0.4 |
| 06.01.2026 | 16:10 | -0.5 | 90 | -1.9 | 1017.4 | 0.9 | WSW | 39 | 0.4 |
| 06.01.2026 | 16:15 | -0.6 | 90 | -2.0 | 1017.4 | 0.4 | SSW | 37 | 0.4 |
| 06.01.2026 | 16:20 | -0.7 | 90 | -2.1 | 1017.4 | 0.4 | WSW | 39 | 0.4 |
| 06.01.2026 | 16:25 | -0.9 | 91 | -2.2 | 1017.4 | 1.3 | WSW | 23 | 0.4 |
| 06.01.2026 | 16:30 | -1.0 | 91 | -2.3 | 1017.5 | 0.9 | SW | 12 | 0.4 |
| 06.01.2026 | 16:35 | -1.2 | 91 | -2.5 | 1017.5 | 0.9 | WSW | 11 | 0.4 |
| 06.01.2026 | 16:40 | -1.4 | 91 | -2.7 | 1017.5 | 1.3 | SSW | 11 | 0.4 |
| 06.01.2026 | 16:45 | -1.5 | 91 | -2.8 | 1017.5 | 1.3 | SW | 9 | 0.4 |
| 06.01.2026 | 16:50 | -1.6 | 91 | -2.9 | 1017.5 | 0.4 | SW | 5 | 0.4 |
| 06.01.2026 | 16:55 | -1.7 | 92 | -2.8 | 1017.6 | 0.9 | SSW | 0 | 0.4 |
| 06.01.2026 | 17:00 | -1.8 | 92 | -2.9 | 1017.7 | 0.9 | SSW | 0 | 0.4 |
| 06.01.2026 | 17:05 | -1.9 | 92 | -3.0 | 1017.7 | 0.4 | SSW | 0 | 0.4 |
| 06.01.2026 | 17:10 | -2.0 | 92 | -3.1 | 1017.8 | 1.3 | SSW | 0 | 0.4 |
| 06.01.2026 | 17:15 | -2.1 | 92 | -3.2 | 1017.9 | 1.3 | S | 0 | 0.4 |
| 06.01.2026 | 17:20 | -2.2 | 92 | -3.3 | 1017.9 | 0.9 | S | 0 | 0.4 |
| 06.01.2026 | 17:25 | -2.2 | 92 | -3.3 | 1017.9 | 0.9 | S | 0 | 0.4 |
| 06.01.2026 | 17:30 | -2.4 | 92 | -3.5 | 1017.9 | 0.4 | S | 0 | 0.4 |
| 06.01.2026 | 17:35 | -2.5 | 92 | -3.6 | 1017.9 | 1.3 | S | 0 | 0.4 |
| 06.01.2026 | 17:40 | -2.5 | 92 | -3.6 | 1018.0 | 0.4 | S | 0 | 0.4 |
| 06.01.2026 | 17:45 | -2.6 | 92 | -3.7 | 1017.9 | 0.4 | S | 0 | 0.4 |
| 06.01.2026 | 17:50 | -2.7 | 92 | -3.8 | 1017.9 | 0.0 | S | 0 | 0.4 |
| 06.01.2026 | 17:55 | -2.8 | 92 | -3.9 | 1017.9 | 0.0 | S | 0 | 0.4 |
| 06.01.2026 | 18:01 | -2.9 | 92 | -4.0 | 1017.9 | 0.0 | S | 0 | 0.4 |
| 06.01.2026 | 18:06 | -3.0 | 92 | -4.1 | 1018.1 | 0.4 | S | 0 | 0.4 |
| 06.01.2026 | 18:11 | -3.0 | 92 | -4.1 | 1018.1 | 0.9 | SSO | 0 | 0.4 |
| 06.01.2026 | 18:16 | -3.1 | 92 | -4.2 | 1018.1 | 0.4 | S | 0 | 0.4 |
| 06.01.2026 | 18:21 | -3.1 | 92 | -4.2 | 1018.2 | 0.0 | S | 0 | 0.4 |
| 06.01.2026 | 18:26 | -3.2 | 93 | -4.2 | 1018.2 | 0.4 | SSW | 0 | 0.4 |
| 06.01.2026 | 18:31 | -3.4 | 93 | -4.4 | 1018.3 | 0.4 | SSW | 0 | 0.4 |
| 06.01.2026 | 18:36 | -3.5 | 93 | -4.5 | 1018.3 | 0.9 | SSW | 0 | 0.4 |
| 06.01.2026 | 18:41 | -3.5 | 93 | -4.5 | 1018.4 | 0.4 | SSW | 0 | 0.4 |
| 06.01.2026 | 18:46 | -3.6 | 93 | -4.6 | 1018.4 | 1.8 | SSW | 0 | 0.4 |
| 06.01.2026 | 18:51 | -3.6 | 93 | -4.6 | 1018.5 | 0.4 | SW | 0 | 0.4 |
| 06.01.2026 | 18:56 | -3.6 | 93 | -4.6 | 1018.5 | 0.4 | WSW | 0 | 0.4 |
| 06.01.2026 | 19:01 | -3.6 | 93 | -4.6 | 1018.6 | 0.9 | SSW | 0 | 0.4 |
| 06.01.2026 | 19:06 | -3.7 | 93 | -4.7 | 1018.6 | 0.9 | SSO | 0 | 0.4 |
| 06.01.2026 | 19:11 | -3.8 | 93 | -4.8 | 1018.7 | 0.0 | SSO | 0 | 0.4 |
| 06.01.2026 | 19:16 | -3.8 | 93 | -4.8 | 1018.8 | 0.9 | SO | 0 | 0.4 |
| 06.01.2026 | 19:21 | -3.9 | 93 | -4.9 | 1018.8 | 0.9 | S | 0 | 0.4 |
| 06.01.2026 | 19:26 | -4.0 | 93 | -5.0 | 1018.8 | 0.9 | S | 0 | 0.4 |
| 06.01.2026 | 19:31 | -4.1 | 93 | -5.1 | 1018.9 | 0.0 | S | 0 | 0.4 |
| 06.01.2026 | 19:36 | -4.1 | 93 | -5.1 | 1018.9 | 0.0 | S | 0 | 0.4 |
| 06.01.2026 | 19:41 | -4.3 | 93 | -5.3 | 1019.0 | 0.0 | S | 0 | 0.4 |
| 06.01.2026 | 19:46 | -4.5 | 93 | -5.5 | 1019.0 | 0.0 | S | 0 | 0.4 |
| 06.01.2026 | 19:51 | -4.7 | 93 | -5.7 | 1019.0 | 0.0 | S | 0 | 0.4 |
| 06.01.2026 | 19:56 | -4.9 | 93 | -5.9 | 1018.9 | 0.0 | S | 0 | 0.4 |
| 06.01.2026 | 20:01 | -5.1 | 93 | -6.1 | 1018.8 | 0.0 | S | 0 | 0.4 |
| 06.01.2026 | 20:06 | -5.5 | 93 | -6.5 | 1018.9 | 0.0 | S | 0 | 0.4 |
| 06.01.2026 | 20:11 | -5.7 | 93 | -6.6 | 1018.9 | 0.4 | S | 0 | 0.4 |
| 06.01.2026 | 20:16 | -6.0 | 93 | -6.9 | 1018.9 | 0.0 | S | 0 | 0.4 |
| 06.01.2026 | 20:21 | -6.1 | 93 | -7.0 | 1019.0 | 0.0 | S | 0 | 0.4 |
| 06.01.2026 | 20:26 | -6.2 | 93 | -7.1 | 1019.0 | 0.0 | S | 0 | 0.4 |
| 06.01.2026 | 20:31 | -6.4 | 93 | -7.3 | 1018.9 | 0.0 | S | 0 | 0.4 |
| 06.01.2026 | 20:36 | -6.6 | 93 | -7.5 | 1019.0 | 0.0 | S | 0 | 0.4 |
| 06.01.2026 | 20:41 | -6.9 | 92 | -8.0 | 1018.9 | 0.0 | S | 0 | 0.4 |
| 06.01.2026 | 20:46 | -7.0 | 93 | -7.9 | 1018.9 | 0.0 | S | 0 | 0.4 |
| 06.01.2026 | 20:52 | -7.1 | 93 | -8.0 | 1018.9 | 0.0 | S | 0 | 0.4 |
| 06.01.2026 | 20:57 | -7.0 | 93 | -7.9 | 1018.9 | 0.0 | S | 0 | 0.4 |
| 06.01.2026 | 21:02 | -7.0 | 93 | -7.9 | 1018.8 | 0.0 | S | 0 | 0.4 |
| 06.01.2026 | 21:07 | -6.9 | 93 | -7.8 | 1018.8 | 0.0 | S | 0 | 0.4 |
| 06.01.2026 | 21:12 | -6.7 | 93 | -7.6 | 1018.8 | 0.0 | S | 0 | 0.4 |
| 06.01.2026 | 21:17 | -6.5 | 93 | -7.4 | 1018.8 | 0.4 | S | 0 | 0.4 |
| 06.01.2026 | 21:22 | -6.1 | 93 | -7.0 | 1018.9 | 1.3 | SW | 0 | 0.4 |
| 06.01.2026 | 21:27 | -5.7 | 93 | -6.6 | 1018.9 | 1.8 | SSW | 0 | 0.4 |
| 06.01.2026 | 21:32 | -5.5 | 93 | -6.5 | 1018.9 | 0.9 | SSW | 0 | 0.4 |
| 06.01.2026 | 21:37 | -5.2 | 93 | -6.2 | 1018.9 | 0.4 | SSW | 0 | 0.4 |
| 06.01.2026 | 21:42 | -5.0 | 93 | -6.0 | 1018.9 | 0.4 | SSO | 0 | 0.4 |
| 06.01.2026 | 21:47 | -4.7 | 93 | -5.7 | 1018.9 | 0.9 | SSO | 0 | 0.4 |
| 06.01.2026 | 21:52 | -4.4 | 93 | -5.4 | 1018.9 | 2.2 | SSW | 0 | 0.4 |
| 06.01.2026 | 21:57 | -4.1 | 93 | -5.1 | 1018.9 | 1.3 | SSW | 0 | 0.4 |
| 06.01.2026 | 22:02 | -4.0 | 93 | -5.0 | 1019.0 | 1.3 | SSO | 0 | 0.4 |
| 06.01.2026 | 22:07 | -3.9 | 93 | -4.9 | 1019.0 | 1.8 | SW | 0 | 0.4 |
| 06.01.2026 | 22:12 | -3.7 | 93 | -4.7 | 1018.9 | 1.3 | SSW | 0 | 0.4 |
| 06.01.2026 | 22:17 | -3.6 | 93 | -4.6 | 1018.9 | 3.1 | SW | 0 | 0.4 |
| 06.01.2026 | 22:22 | -3.6 | 93 | -4.6 | 1018.9 | 1.3 | SSO | 0 | 0.4 |
| 06.01.2026 | 22:27 | -3.6 | 93 | -4.6 | 1018.8 | 1.3 | S | 0 | 0.4 |
| 06.01.2026 | 22:32 | -3.6 | 93 | -4.6 | 1018.7 | 1.3 | S | 0 | 0.4 |
| 06.01.2026 | 22:37 | -3.6 | 93 | -4.6 | 1018.7 | 2.2 | SSW | 0 | 0.4 |
| 06.01.2026 | 22:42 | -3.6 | 93 | -4.6 | 1018.6 | 1.3 | SSW | 0 | 0.4 |
| 06.01.2026 | 22:47 | -3.6 | 93 | -4.6 | 1018.6 | 0.9 | SW | 0 | 0.4 |
| 06.01.2026 | 22:52 | -3.6 | 93 | -4.6 | 1018.6 | 0.4 | SSW | 0 | 0.4 |
| 06.01.2026 | 22:57 | -3.6 | 93 | -4.6 | 1018.6 | 1.8 | S | 0 | 0.4 |
| 06.01.2026 | 23:02 | -3.6 | 93 | -4.6 | 1018.6 | 1.3 | S | 0 | 0.4 |
| 06.01.2026 | 23:07 | -3.7 | 93 | -4.7 | 1018.6 | 0.9 | S | 0 | 0.4 |
| 06.01.2026 | 23:12 | -3.7 | 93 | -4.7 | 1018.6 | 0.9 | SSO | 0 | 0.4 |
| 06.01.2026 | 23:17 | -3.7 | 93 | -4.7 | 1018.6 | 0.4 | S | 0 | 0.4 |
| 06.01.2026 | 23:22 | -3.7 | 93 | -4.7 | 1018.5 | 2.7 | SSW | 0 | 0.4 |
| 06.01.2026 | 23:27 | -3.7 | 93 | -4.7 | 1018.5 | 1.8 | S | 0 | 0.4 |
| 06.01.2026 | 23:32 | -3.7 | 93 | -4.7 | 1018.4 | 1.8 | S | 0 | 0.4 |
| 06.01.2026 | 23:38 | -3.7 | 93 | -4.7 | 1018.4 | 0.9 | S | 0 | 0.4 |
| 06.01.2026 | 23:43 | -3.7 | 93 | -4.7 | 1018.4 | 0.9 | S | 0 | 0.4 |
| 06.01.2026 | 23:48 | -3.6 | 93 | -4.6 | 1018.3 | 1.8 | OSO | 0 | 0.4 |
| 06.01.2026 | 23:53 | -3.6 | 93 | -4.6 | 1018.2 | 0.4 | SSO | 0 | 0.4 |